ORBCOMM FM103 [+] (40091 NORAD) Tracking and Keplerian Element Data

This shows tracking and keplerian element data for the satellite.

Feedback or suggestion? Click here.




ElementValue
Catalog40091
NameORBCOMM FM103 [+]
Epoch Orbit21428
Epoch Day322.91105225
Epoch Year2018
RAAN154.6199
Inclination47.0049
Eccentricity0.0001916
Argument of Perigee123.3662
Mean Anonmoly236.7405
Mean Motion14.54740959
Decay Rate3.2E-07
L11 40091U 14040F 18322.91105225 .00000032 00000-0 45718-4 0 9998
L22 40091 47.0049 154.6199 0001916 123.3662 236.7405 14.54740959214287

Live tracking and technical data element details for ORBCOMM FM103 [+] (NORAD 40091). ORBCOMM FM103 [+] can be tracked NOW for your location showing map with azimuth and elevation plus other details from your city location.

Track the satellite on the map from your city or location and see movement details for azimuth, elevation, latitude, longitude, range, height, and movement on the map or in text.







IsCatalogInMostPopularTable: catalog: 40091, numindb: 95
Update: records affected: 1



GetName: 40091 ORBCOMM FM103 [+]

Hit Count: updated at: Tue, 20 Nov 2018 00:40:58 GMT